Kodiak, AK

7:34 PM AKST en Noviembre 14, 2018 (GMT -0900)
Kodiak

Tiempo Historia de PADQ - Septiembre, 2018

Change the Weather History Date:

Viernes, Septiembre 14, 2018

  Actual Average Record
Temperature  
Temperatura media 54 ° F 50 ° F  
Temperatura máxima 62 ° F 56 ° F 73 ° F (1985)
Temperatura mínima 46 ° F 44 ° F 33 ° F (1987)
Degree Days  
Grados día de calefacción 11 15  
Month to date heating degree days 120 186  
Since 1 July heating degree days 622 819  
Cooling Degree Days 0 0  
Month to date cooling degree days 0 0  
Year to date cooling degree days 8 1  
Growing Degree Days 4 (Base 50)    
Moisture  
Punto de rocío 48 ° F    
Average Humidity 71    
Maximum Humidity 86    
Minimum Humidity 56    
Precipitación  
Precipitación 0.00 pul 0.25 pul 2.34 pul (1981)
Month to date precipitation 0.19 3.00  
Year to date precipitation 44.85 49.79  
Nieve  
Nieve 0.00 pul 0.00 pul - ()
Month to date snowfall 0.0 0.0  
Since 1 July snowfall 0.0 0.0  
Since 1 September snowfall 0.0 0.0  
Grosos de nieve 0.00 pul    
Presión al nivel del mar  
Presión al nivel del mar 30.05 pul    
Viento  
Velocidad del viento 7 mph (Este)    
Velocidad máxima del viento 10 mph    
Max Gust Speed 12 mph    
Visibilidad 7 Millas    
Eventos Niebla    
T = Trace of Precipitation, MM = Missing Value Source: NWS Daily Summary

Daily Weather History Graph

Daily Weather History Graph

Search for Another Location

Airport or City:

Astronomía

Sep. 14, 2018 Salida Puesta
Hora real 7:38 AM AKDT 8:31 PM AKDT
Crepúsculo civil 6:58 AM AKDT 9:10 PM AKDT
Crepúsculo náutico 6:10 AM AKDT 9:58 PM AKDT
Crepúsculo astronómico 5:16 AM AKDT 10:51 PM AKDT
Luna 2:08 PM AKDT (9/14) 10:49 PM AKDT (9/14)
Horas de luz 14h 11m
Horas de luz
12h 52m
Creciente, 29% of the Moon is Illuminated
Sep 14
Creciente
Sep 16
Cuarto creciente
Sep 24
Luna llena
Oct 2
Cuarto menguante
Oct 8
Nueva

Hourly Weather History & Observations

Hora (AKDT) Temp. Punto de rocío Humedad Presión Visibilidad Wind Dir Velocidad del viento Velocidad de ráfagas Precip Eventos Condiciones
12:53 AM 54.0 ° F 45.0 ° F 72% 30.03 pul 10.0 mi ONO 6.9 mph - N/A   Despejado
1:53 AM 53.1 ° F 44.1 ° F 71% 30.02 pul 10.0 mi ONO 6.9 mph - N/A   Despejado
2:53 AM 54.0 ° F 43.0 ° F 66% 30.03 pul 10.0 mi Oeste 3.5 mph - N/A   Despejado
3:53 AM 51.1 ° F 43.0 ° F 74% 30.03 pul 10.0 mi Oeste 9.2 mph - N/A   Despejado
4:53 AM 52.0 ° F 42.1 ° F 69% 30.02 pul 10.0 mi Oeste 8.1 mph - N/A   Despejado
5:53 AM 46.9 ° F 42.1 ° F 83% 30.02 pul 10.0 mi Oeste 6.9 mph - N/A   Despejado
6:53 AM 46.9 ° F 42.1 ° F 83% 30.02 pul 10.0 mi Oeste 8.1 mph - N/A   Despejado
7:53 AM 48.0 ° F 42.1 ° F 80% 30.03 pul 10.0 mi Oeste 8.1 mph - N/A   Despejado
8:53 AM 53.1 ° F 44.1 ° F 71% 30.03 pul 10.0 mi Oeste 4.6 mph - N/A   Despejado
9:53 AM 57.0 ° F 46.9 ° F 69% 30.03 pul 10.0 mi NE 4.6 mph - N/A   Despejado
10:53 AM 61.0 ° F 46.9 ° F 60% 30.04 pul 10.0 mi SE 4.6 mph - N/A   Despejado
11:53 AM 62.1 ° F 46.9 ° F 58% 30.05 pul 10.0 mi Sur 5.8 mph - N/A   Despejado
12:53 PM 60.1 ° F 46.9 ° F 62% 30.05 pul 10.0 mi ESE 5.8 mph - N/A   Despejado
1:53 PM 60.1 ° F 48.0 ° F 64% 30.05 pul 10.0 mi Este 8.1 mph - N/A   Despejado
2:53 PM 60.1 ° F 48.9 ° F 67% 30.06 pul 10.0 mi SE 6.9 mph - N/A   Despejado
3:53 PM 57.9 ° F 50.0 ° F 75% 30.06 pul 10.0 mi ESE 6.9 mph - N/A   Despejado
4:53 PM 57.9 ° F 51.1 ° F 78% 30.06 pul 10.0 mi ESE 8.1 mph - N/A   Despejado
5:53 PM 55.9 ° F 51.1 ° F 84% 30.05 pul 10.0 mi Este 4.6 mph - N/A   Despejado
6:05 PM 55.0 ° F 52.0 ° F 89% 30.05 pul 1.0 mi Este 9.2 mph - N/A   Neblina
6:12 PM 53.1 ° F 52.0 ° F 96% 30.05 pul 0.2 mi Este 6.9 mph - N/A Niebla Niebla
6:53 PM 52.0 ° F 51.1 ° F 97% 30.04 pul 0.2 mi Este 6.9 mph - N/A Niebla Niebla
7:53 PM 51.1 ° F 50.0 ° F 96% 30.04 pul 0.2 mi Este 5.8 mph - N/A Niebla Niebla
8:40 PM 51.1 ° F 50.0 ° F 96% 30.05 pul 1.2 mi SE 4.6 mph - N/A   Nublado
8:49 PM 51.8 ° F 50.0 ° F 94% 30.05 pul 0.8 mi Este 5.8 mph - N/A   Neblina
8:53 PM 51.1 ° F 50.0 ° F 96% 30.06 pul 0.8 mi Este 5.8 mph - N/A   Neblina
9:18 PM 50.0 ° F 50.0 ° F 100% 30.05 pul 1.0 mi ENE 5.8 mph - N/A   Neblina
9:31 PM 50.0 ° F 50.0 ° F 100% 30.06 pul 0.8 mi Este 5.8 mph - N/A   Neblina
9:38 PM 50.0 ° F 50.0 ° F 100% 30.06 pul 1.2 mi ENE 5.8 mph - N/A   Nublado
9:47 PM 50.0 ° F 50.0 ° F 100% 30.06 pul 3.0 mi Este 5.8 mph - N/A   Nublado
9:53 PM 50.0 ° F 48.9 ° F 96% 30.06 pul 3.0 mi Este 4.6 mph - N/A   Nublado
10:30 PM 51.1 ° F 48.9 ° F 92% 30.06 pul 10.0 mi ENE 6.9 mph - N/A   Nublado
10:53 PM 51.1 ° F 48.9 ° F 92% 30.06 pul 10.0 mi NE 6.9 mph - N/A   Nublado
11:53 PM 51.1 ° F 48.9 ° F 92% 30.06 pul 10.0 mi ESE 6.9 mph - N/A   Nublado